Big Bear City, CA

11:23 PM PDT on September 21, 2019 (GMT -0700)
Big Bear City

Weather History for KL35 - May, 2019

Change the Weather History Date:

Wednesday, May 29, 2019

  Actual Average (KBUO) Record (KBUO)
Temperature  
Mean Temperature 46 °F -  
Max Temperature 60 °F 76 °F 96 °F (1997)
Min Temperature 32 °F 51 °F 46 °F (1998)
Degree Days  
Heating Degree Days 19    
Moisture  
Dew Point 32 °F    
Average Humidity 61    
Maximum Humidity 93    
Minimum Humidity 29    
Precipitation  
Precipitation 0.00 in - - ()
Sea Level Pressure  
Sea Level Pressure 30.05 in    
Wind  
Wind Speed 1 mph (SW)    
Max Wind Speed 9 mph    
Max Gust Speed -    
Visibility 10 miles    
Events Rain    
Averages and records for this station are not official NWS values.
T = Trace of Precipitation, MM = Missing Value Source: NWS Daily Summary

Daily Weather History Graph

Daily Weather History Graph

Search for Another Location

Airport or City:

Astronomy

May. 29, 2019 Rise Set
Actual Time 5:37 AM PDT 7:52 PM PDT
Civil Twilight 5:09 AM PDT 8:21 PM PDT
Nautical Twilight 4:33 AM PDT 8:56 PM PDT
Astronomical Twilight 3:55 AM PDT 9:34 PM PDT
Moon 3:01 AM PDT (5/29) 3:20 PM PDT (5/29)
Length of Visible Light 15h 12m
Length of Day
14h 14m
Waning Crescent, 22% of the Moon is Illuminated
May 29
Waning Crescent
Jun 3
New
Jun 9
First Quarter
Jun 17
Full
Jun 25
Last Quarter

Hourly Weather History & Observations

Time (PDT) Temp. Dew Point Humidity Pressure Visibility Wind Dir Wind Speed Gust Speed Precip Events Conditions
12:15 AM 37.4 °F 33.8 °F 87% 30.06 in 10.0 mi Calm Calm - N/A   Clear
12:35 AM 35.6 °F 32.0 °F 87% 30.06 in 10.0 mi Calm Calm - N/A   Clear
12:55 AM 35.6 °F 32.0 °F 87% 30.05 in 10.0 mi Calm Calm - N/A   Clear
1:15 AM 35.6 °F 32.0 °F 87% 30.05 in 10.0 mi Calm Calm - N/A   Clear
1:35 AM 33.8 °F 32.0 °F 93% 30.04 in 10.0 mi Calm Calm - N/A   Clear
1:55 AM 33.8 °F 32.0 °F 93% 30.04 in 10.0 mi Calm Calm - N/A   Clear
2:15 AM 33.8 °F 32.0 °F 93% 30.04 in 10.0 mi Calm Calm - N/A   Clear
2:35 AM 33.8 °F 32.0 °F 93% 30.04 in 10.0 mi Calm Calm - N/A   Clear
2:55 AM 32.0 °F 30.2 °F 93% 30.04 in 10.0 mi Calm Calm - N/A   Clear
3:15 AM 32.0 °F 30.2 °F 93% 30.03 in 10.0 mi Calm Calm - N/A   Clear
3:35 AM 32.0 °F 30.2 °F 93% 30.04 in 10.0 mi Calm Calm - N/A   Clear
3:55 AM 32.0 °F 30.2 °F 93% 30.04 in 10.0 mi Calm Calm - N/A   Clear
4:15 AM 32.0 °F 30.2 °F 93% 30.03 in 10.0 mi Calm Calm - N/A   Clear
4:35 AM 32.0 °F 30.2 °F 93% 30.03 in 10.0 mi Calm Calm - N/A   Clear
4:55 AM 32.0 °F 30.2 °F 93% 30.03 in 10.0 mi Calm Calm - N/A   Clear
5:15 AM 32.0 °F 30.2 °F 93% 30.03 in 10.0 mi Calm Calm - N/A   Clear
5:35 AM 32.0 °F 30.2 °F 93% 30.03 in 10.0 mi Calm Calm - N/A   Clear
5:55 AM 32.0 °F 30.2 °F 93% 30.04 in 10.0 mi Calm Calm - N/A   Clear
6:15 AM 32.0 °F 30.2 °F 93% 30.05 in 10.0 mi Calm Calm - N/A   Clear
6:35 AM 33.8 °F 32.0 °F 93% 30.05 in 10.0 mi Calm Calm - N/A   Clear
6:55 AM 35.6 °F 32.0 °F 87% 30.05 in 10.0 mi Calm Calm - N/A   Clear
7:15 AM 39.2 °F 33.8 °F 81% 30.05 in 10.0 mi Calm Calm - N/A   Clear
7:35 AM 42.8 °F 33.8 °F 70% 30.05 in 10.0 mi Calm Calm - N/A   Clear
7:55 AM 44.6 °F 32.0 °F 61% 30.06 in 10.0 mi Calm Calm - N/A   Clear
8:15 AM 50.0 °F 32.0 °F 50% 30.06 in 10.0 mi Calm Calm - N/A   Clear
8:35 AM 51.8 °F 32.0 °F 47% 30.06 in 10.0 mi Calm Calm - N/A   Clear
8:55 AM 53.6 °F 32.0 °F 44% 30.06 in 10.0 mi Calm Calm - N/A   Clear
9:15 AM 53.6 °F 32.0 °F 44% 30.06 in 10.0 mi Calm Calm - N/A   Clear
9:35 AM 55.4 °F 32.0 °F 41% 30.06 in 10.0 mi ESE 3.5 mph - N/A   Clear
9:55 AM 55.4 °F 32.0 °F 41% 30.06 in 10.0 mi Calm Calm - N/A   Clear
10:15 AM 57.2 °F 32.0 °F 38% 30.06 in 10.0 mi East 4.6 mph - N/A   Scattered Clouds
10:35 AM 59.0 °F 32.0 °F 36% 30.06 in 10.0 mi Calm Calm - N/A   Scattered Clouds
10:55 AM 57.2 °F 32.0 °F 38% 30.06 in 10.0 mi ENE 4.6 mph - N/A   Mostly Cloudy
11:15 AM 55.4 °F 32.0 °F 41% 30.06 in 10.0 mi ENE 5.8 mph - N/A   Overcast
11:35 AM 55.4 °F 32.0 °F 41% 30.06 in 10.0 mi ENE 3.5 mph - N/A   Overcast
11:55 AM 55.4 °F 32.0 °F 41% 30.06 in 10.0 mi Calm Calm - N/A   Overcast
12:15 PM 55.4 °F 32.0 °F 41% 30.07 in 10.0 mi Calm Calm - N/A   Overcast
12:35 PM 55.4 °F 32.0 °F 41% 30.06 in 10.0 mi Calm Calm - N/A   Overcast
12:55 PM 55.4 °F 32.0 °F 41% 30.06 in 10.0 mi Calm Calm - N/A   Overcast
1:15 PM 55.4 °F 32.0 °F 41% 30.06 in 10.0 mi West 4.6 mph - N/A   Overcast
1:35 PM 55.4 °F 32.0 °F 41% 30.06 in 10.0 mi WSW 6.9 mph - N/A Rain Light Rain
1:55 PM 55.4 °F 33.8 °F 44% 30.06 in 10.0 mi Calm Calm - N/A   Overcast
2:15 PM 55.4 °F 33.8 °F 44% 30.06 in 10.0 mi North 5.8 mph - N/A   Overcast
2:35 PM 55.4 °F 33.8 °F 44% 30.06 in 10.0 mi NNW 5.8 mph - N/A Rain Light Rain
2:55 PM 55.4 °F 32.0 °F 41% 30.06 in 10.0 mi Calm Calm - N/A   Overcast
3:15 PM 57.2 °F 30.2 °F 36% 30.06 in 10.0 mi SSW 5.8 mph - N/A   Overcast
3:50 PM 59.0 °F 30.2 °F 34% 30.05 in 10.0 mi SSW 8.1 mph - N/A   Scattered Clouds
4:24 PM 60.8 °F 28.4 °F 29% 30.04 in 10.0 mi SSW 5.8 mph - N/A   Scattered Clouds
4:30 PM 59.0 °F 30.2 °F 34% 30.04 in 10.0 mi SSW 8.1 mph - N/A   Scattered Clouds
4:59 PM 59.0 °F 30.2 °F 34% 30.03 in 10.0 mi WSW 8.1 mph - N/A   Clear
5:15 PM 59.0 °F 30.2 °F 34% 30.03 in 10.0 mi SSW 5.8 mph - N/A   Clear
5:30 PM 59.0 °F 30.2 °F 34% 30.03 in 10.0 mi WSW 6.9 mph - N/A   Clear
5:59 PM 59.0 °F 30.2 °F 34% 30.03 in 10.0 mi West 8.1 mph - N/A   Scattered Clouds
6:15 PM 55.4 °F 32.0 °F 41% 30.03 in 10.0 mi WSW 9.2 mph - N/A   Clear
6:35 PM 55.4 °F 32.0 °F 41% 30.04 in 10.0 mi SW 6.9 mph - N/A   Clear
6:55 PM 55.4 °F 32.0 °F 41% 30.04 in 10.0 mi WSW 3.5 mph - N/A   Clear
7:15 PM 53.6 °F 32.0 °F 44% 30.05 in 10.0 mi SW 3.5 mph - N/A   Clear
7:35 PM 51.8 °F 33.8 °F 50% 30.05 in 10.0 mi WSW 6.9 mph - N/A   Clear
7:55 PM 51.8 °F 33.8 °F 50% 30.06 in 10.0 mi West 6.9 mph - N/A   Clear
8:10 PM 50.0 °F 33.8 °F 54% 30.06 in 10.0 mi West 4.6 mph - N/A   Clear
8:35 PM 50.0 °F 32.0 °F 50% 30.07 in 10.0 mi Calm Calm - N/A   Clear
8:55 PM 48.2 °F 32.0 °F 54% 30.08 in 10.0 mi Calm Calm - N/A   Clear
9:15 PM 46.4 °F 32.0 °F 57% 30.08 in 10.0 mi Calm Calm - N/A   Clear
9:35 PM 44.6 °F 32.0 °F 61% 30.09 in 10.0 mi Calm Calm - N/A   Clear
9:55 PM 42.8 °F 32.0 °F 66% 30.09 in 10.0 mi Calm Calm - N/A   Clear
10:15 PM 41.0 °F 32.0 °F 70% 30.09 in 10.0 mi Calm Calm - N/A   Clear
10:35 PM 41.0 °F 32.0 °F 70% 30.09 in 10.0 mi Calm Calm - N/A   Clear
10:55 PM 41.0 °F 32.0 °F 70% 30.09 in 10.0 mi Calm Calm - N/A   Clear
11:15 PM 39.2 °F 32.0 °F 75% 30.09 in 10.0 mi Calm Calm - N/A   Clear
11:35 PM 37.4 °F 32.0 °F 81% 30.09 in 10.0 mi Calm Calm - N/A   Clear
11:55 PM 37.4 °F 32.0 °F 81% 30.08 in 10.0 mi Calm Calm - N/A   Clear